| time (UTC) | temp F | wind direction | speed knots | gust knots | rain 1hr in | rain 24hr in | rain mn in | humidity % | barometer mb |
| 20260502151522 | 51 | 360 | 0.0 | 0.0 | 0.00 | 0.00 | 0.00 | 30 | 1019.8 |
| 20260502151518 | 75 | 29 | 0.0 | 0.0 | 0.00 | 0.00 | 0.00 | 40 | 1008.8 |
| 20260502123117 | 31 | 360 | 0.0 | 0.0 | 0.00 | 0.00 | 0.00 | 59 | 1019.4 |
| 20260502123100 | 65 | 38 | 0.0 | 0.0 | 0.00 | 0.00 | 0.00 | 48 | 1006.8 |
| 20260502121600 | 32 | 360 | 0.0 | 0.0 | 0.00 | 0.00 | 0.00 | 58 | 1019.4 |
| 20260502121559 | 66 | 38 | 0.0 | 0.0 | 0.00 | 0.00 | 0.00 | 48 | 1006.7 |
| 20260502120119 | 32 | 360 | 0.0 | 0.0 | 0.00 | 0.00 | 0.00 | 58 | 1019.3 |
| 20260502120105 | 66 | 38 | 0.0 | 0.0 | 0.00 | 0.00 | 0.00 | 48 | 1006.7 |
| 20260502114600 | 66 | 38 | 0.0 | 0.0 | 0.00 | 0.00 | 0.00 | 47 | 1006.7 |
| 20260502114559 | 32 | 360 | 0.0 | 0.0 | 0.00 | 0.00 | 0.00 | 59 | 1019.2 |
| 20260502113100 | 66 | 38 | 0.0 | 0.0 | 0.00 | 0.00 | 0.00 | 48 | 1006.7 |
| 20260502113058 | 32 | 360 | 0.0 | 0.0 | 0.00 | 0.00 | 0.00 | 58 | 1019.1 |
| 20260502111557 | 64 | 38 | 0.0 | 0.0 | 0.00 | 0.00 | 0.00 | 52 | 1006.6 |
| 20260502111552 | 33 | 360 | 0.0 | 0.0 | 0.00 | 0.00 | 0.00 | 55 | 1019.2 |
| 20260502110100 | 65 | 38 | 0.0 | 0.0 | 0.00 | 0.00 | 0.00 | 51 | 1006.7 |
| 20260502110050 | 34 | 360 | 0.0 | 0.0 | 0.00 | 0.00 | 0.00 | 54 | 1019.3 |
| 20260502104553 | 65 | 38 | 0.0 | 0.0 | 0.00 | 0.00 | 0.00 | 51 | 1006.7 |
| 20260502104546 | 34 | 360 | 0.0 | 0.0 | 0.00 | 0.00 | 0.00 | 55 | 1019.2 |
| 20260502103053 | 66 | 38 | 0.0 | 0.0 | 0.00 | 0.00 | 0.00 | 49 | 1006.6 |
| 20260502103046 | 35 | 360 | 0.0 | 0.0 | 0.00 | 0.00 | 0.00 | 54 | 1019.2 |
| 20260502101550 | 67 | 38 | 0.0 | 0.0 | 0.00 | 0.00 | 0.00 | 48 | 1006.5 |
| 20260502101543 | 35 | 360 | 0.0 | 0.0 | 0.00 | 0.00 | 0.00 | 56 | 1019.2 |
| 20260502071520 | 74 | 153 | 0.0 | 0.0 | 0.00 | 0.00 | 0.00 | 37 | 1007.2 |
| 20260502071513 | 42 | 360 | 0.0 | 0.0 | 0.00 | 0.00 | 0.00 | 44 | 1019.3 |
| 20260502070017 | 74 | 152 | 0.0 | 0.0 | 0.00 | 0.00 | 0.00 | 37 | 1007.3 |
| 20260502064537 | 74 | 148 | 0.0 | 0.0 | 0.00 | 0.00 | 0.00 | 37 | 1007.3 |
| 20260502064509 | 43 | 360 | 0.0 | 0.0 | 0.00 | 0.00 | 0.00 | 42 | 1019.3 |
| 20260502063020 | 75 | 148 | 0.0 | 0.0 | 0.00 | 0.00 | 0.00 | 37 | 1007.2 |
| 20260502063008 | 43 | 360 | 0.0 | 0.0 | 0.00 | 0.00 | 0.00 | 41 | 1019.3 |
| 20260502061515 | 75 | 165 | 0.0 | 0.0 | 0.00 | 0.00 | 0.00 | 39 | 1007.3 |
| 20260502061505 | 44 | 360 | 0.0 | 0.0 | 0.00 | 0.00 | 0.00 | 39 | 1019.3 |
| 20260502060015 | 75 | 161 | 0.0 | 0.0 | 0.00 | 0.00 | 0.00 | 41 | 1007.1 |
| 20260502060003 | 44 | 360 | 0.0 | 0.0 | 0.00 | 0.00 | 0.00 | 39 | 1019.1 |
| 20260502054514 | 76 | 179 | 0.0 | 0.0 | 0.00 | 0.00 | 0.00 | 38 | 1007.1 |
| 20260502054500 | 45 | 360 | 0.0 | 0.0 | 0.00 | 0.00 | 0.00 | 36 | 1018.9 |
| 20260502053101 | 46 | 360 | 0.0 | 0.0 | 0.00 | 0.00 | 0.00 | 35 | 1018.7 |
| 20260502053014 | 76 | 203 | 0.0 | 0.0 | 0.00 | 0.00 | 0.00 | 36 | 1007.0 |
| 20260502051603 | 47 | 360 | 0.0 | 0.0 | 0.00 | 0.00 | 0.00 | 36 | 1018.5 |
| 20260502051514 | 77 | 183 | 0.0 | 0.0 | 0.00 | 0.00 | 0.00 | 37 | 1006.9 |
| 20260502050021 | 77 | 173 | 0.0 | 0.0 | 0.00 | 0.00 | 0.00 | 38 | 1007.0 |
| 20260502044614 | 48 | 360 | 0.0 | 0.0 | 0.00 | 0.00 | 0.00 | 34 | 1018.3 |
| 20260502044513 | 78 | 192 | 0.0 | 0.0 | 0.00 | 0.00 | 0.00 | 39 | 1006.8 |
| 20260502043101 | 48 | 360 | 0.0 | 0.0 | 0.00 | 0.00 | 0.00 | 36 | 1018.3 |
| 20260502043012 | 79 | 184 | 0.0 | 0.0 | 0.00 | 0.00 | 0.00 | 36 | 1006.6 |
| 20260502041554 | 48 | 360 | 0.0 | 0.0 | 0.00 | 0.00 | 0.00 | 36 | 1018.1 |
| 20260502041512 | 80 | 157 | 0.0 | 0.0 | 0.00 | 0.00 | 0.00 | 37 | 1006.5 |
| 20260502040057 | 49 | 360 | 0.0 | 0.0 | 0.00 | 0.00 | 0.00 | 34 | 1017.9 |
| 20260502040021 | 81 | 167 | 0.0 | 0.0 | 0.00 | 0.00 | 0.00 | 36 | 1006.2 |
| 20260502034549 | 51 | 360 | 0.0 | 0.0 | 0.00 | 0.00 | 0.00 | 31 | 1017.5 |
| 20260502034511 | 82 | 189 | 0.0 | 0.0 | 0.00 | 0.00 | 0.00 | 33 | 1005.7 |
| 20260502033050 | 52 | 360 | 0.0 | 0.0 | 0.00 | 0.00 | 0.00 | 27 | 1017.3 |
| 20260502033010 | 83 | 171 | 0.0 | 0.0 | 0.00 | 0.00 | 0.00 | 30 | 1005.3 |
| 20260502031547 | 52 | 360 | 0.0 | 0.0 | 0.00 | 0.00 | 0.00 | 28 | 1017.0 |
| 20260502031510 | 85 | 218 | 0.0 | 0.0 | 0.00 | 0.00 | 0.00 | 24 | 1005.1 |
| 20260502030049 | 54 | 360 | 0.0 | 0.0 | 0.00 | 0.00 | 0.00 | 25 | 1016.8 |
| 20260502030009 | 86 | 222 | 0.0 | 0.0 | 0.00 | 0.00 | 0.00 | 16 | 1004.8 |
| 20260502024546 | 55 | 360 | 0.0 | 0.0 | 0.00 | 0.00 | 0.00 | 25 | 1016.5 |
| 20260502024509 | 87 | 221 | 0.0 | 0.0 | 0.00 | 0.00 | 0.00 | 16 | 1004.6 |
| 20260502023046 | 56 | 360 | 0.0 | 0.0 | 0.00 | 0.00 | 0.00 | 24 | 1016.3 |
| 20260502023008 | 88 | 227 | 0.0 | 0.0 | 0.00 | 0.00 | 0.00 | 16 | 1004.4 |
| 20260502021546 | 57 | 360 | 0.0 | 0.0 | 0.00 | 0.00 | 0.00 | 23 | 1016.2 |
| 20260502021507 | 89 | 230 | 0.0 | 0.0 | 0.00 | 0.00 | 0.00 | 15 | 1004.4 |
| 20260502020044 | 58 | 360 | 0.0 | 0.0 | 0.00 | 0.00 | 0.00 | 22 | 1016.0 |
| 20260502020008 | 90 | 231 | 0.0 | 0.0 | 0.00 | 0.00 | 0.00 | 15 | 1004.3 |
| 20260502014544 | 59 | 360 | 0.0 | 0.0 | 0.00 | 0.00 | 0.00 | 21 | 1015.9 |
| 20260502014522 | 91 | 217 | 0.0 | 0.0 | 0.00 | 0.00 | 0.00 | 14 | 1004.3 |
| 20260502013044 | 60 | 360 | 0.0 | 0.0 | 0.00 | 0.00 | 0.00 | 22 | 1015.6 |
| 20260502013006 | 92 | 203 | 0.0 | 0.0 | 0.00 | 0.00 | 0.00 | 14 | 1004.3 |
| 20260502011542 | 60 | 360 | 0.0 | 0.0 | 0.00 | 0.00 | 0.00 | 21 | 1015.5 |
| 20260502011506 | 92 | 270 | 0.0 | 0.0 | 0.00 | 0.00 | 0.00 | 14 | 1004.2 |
| 20260502010041 | 61 | 360 | 0.0 | 0.0 | 0.00 | 0.00 | 0.00 | 21 | 1015.4 |
| 20260502010006 | 93 | 236 | 0.0 | 0.0 | 0.00 | 0.00 | 0.00 | 14 | 1004.2 |
| 20260502004540 | 61 | 360 | 0.0 | 0.0 | 0.00 | 0.00 | 0.00 | 20 | 1015.4 |
| 20260502004505 | 93 | 233 | 0.0 | 0.0 | 0.00 | 0.00 | 0.00 | 14 | 1004.2 |
| 20260502003039 | 62 | 360 | 0.0 | 0.0 | 0.00 | 0.00 | 0.00 | 20 | 1015.5 |
| 20260502003002 | 92 | 200 | 0.0 | 0.0 | 0.00 | 0.00 | 0.00 | 14 | 1004.2 |
| 20260502001547 | 61 | 360 | 0.0 | 0.0 | 0.00 | 0.00 | 0.00 | 20 | 1015.6 |
| 20260502001501 | 93 | 269 | 0.0 | 0.0 | 0.00 | 0.00 | 0.00 | 15 | 1004.3 |
| 20260502000038 | 62 | 360 | 0.0 | 0.0 | 0.00 | 0.00 | 0.00 | 20 | 1015.5 |
| 20260501234559 | 94 | 236 | 0.0 | 0.0 | 0.00 | 0.00 | 0.00 | 14 | 1004.5 |
| 20260501234539 | 63 | 360 | 0.0 | 0.0 | 0.00 | 0.00 | 0.00 | 20 | 1015.5 |
| 20260501233058 | 93 | 289 | 0.0 | 0.0 | 0.00 | 0.00 | 0.00 | 14 | 1004.5 |
| 20260501233036 | 63 | 360 | 0.0 | 0.0 | 0.00 | 0.00 | 0.00 | 20 | 1015.4 |
| 20260501231555 | 94 | 267 | 0.0 | 0.0 | 0.00 | 0.00 | 0.00 | 14 | 1004.6 |
| 20260501231535 | 62 | 360 | 0.0 | 0.0 | 0.00 | 0.00 | 0.00 | 21 | 1015.5 |
| 20260501230054 | 94 | 259 | 0.0 | 0.0 | 0.00 | 0.00 | 0.00 | 14 | 1004.8 |
| 20260501230038 | 62 | 360 | 0.0 | 0.0 | 0.00 | 0.00 | 0.00 | 21 | 1015.5 |
| 20260501224559 | 94 | 231 | 0.0 | 0.0 | 0.00 | 0.00 | 0.00 | 14 | 1004.9 |
| 20260501224536 | 62 | 360 | 0.0 | 0.0 | 0.00 | 0.00 | 0.00 | 21 | 1015.5 |
| 20260501223048 | 94 | 215 | 0.0 | 0.0 | 0.00 | 0.00 | 0.00 | 14 | 1005.2 |
| 20260501223032 | 62 | 360 | 0.0 | 0.0 | 0.00 | 0.00 | 0.00 | 21 | 1015.7 |
| 20260501221547 | 92 | 252 | 0.0 | 0.0 | 0.00 | 0.00 | 0.00 | 15 | 1005.4 |
| 20260501221530 | 62 | 360 | 0.0 | 0.0 | 0.00 | 0.00 | 0.00 | 22 | 1015.8 |
| 20260501220049 | 92 | 171 | 0.0 | 0.0 | 0.00 | 0.00 | 0.00 | 16 | 1005.6 |
| 20260501220032 | 61 | 360 | 0.0 | 0.0 | 0.00 | 0.00 | 0.00 | 23 | 1016.1 |
| 20260501214543 | 92 | 158 | 0.0 | 0.0 | 0.00 | 0.00 | 0.00 | 16 | 1005.9 |
| 20260501214538 | 60 | 360 | 0.0 | 0.0 | 0.00 | 0.00 | 0.00 | 22 | 1016.4 |
| 20260501213045 | 91 | 267 | 0.0 | 0.0 | 0.00 | 0.00 | 0.00 | 16 | 1006.2 |
| 20260501213024 | 59 | 360 | 0.0 | 0.0 | 0.00 | 0.00 | 0.00 | 24 | 1016.5 |
| 20260501211542 | 91 | 223 | 0.0 | 0.0 | 0.00 | 0.00 | 0.00 | 17 | 1006.5 |
| 20260501211523 | 59 | 360 | 0.0 | 0.0 | 0.00 | 0.00 | 0.00 | 24 | 1016.6 |
| 20260501210051 | 90 | 53 | 0.0 | 0.0 | 0.00 | 0.00 | 0.00 | 17 | 1006.7 |
| 20260501210023 | 59 | 360 | 0.0 | 0.0 | 0.00 | 0.00 | 0.00 | 24 | 1016.8 |
| 20260501204536 | 90 | 129 | 0.0 | 0.0 | 0.00 | 0.00 | 0.00 | 18 | 1006.9 |
| 20260501204521 | 59 | 360 | 0.0 | 0.0 | 0.00 | 0.00 | 0.00 | 27 | 1016.9 |
| 20260501203039 | 90 | 220 | 0.0 | 0.0 | 0.00 | 0.00 | 0.00 | 19 | 1007.1 |
| 20260501203021 | 58 | 360 | 0.0 | 0.0 | 0.00 | 0.00 | 0.00 | 24 | 1017.0 |
| 20260501201534 | 89 | 224 | 0.0 | 0.0 | 0.00 | 0.00 | 0.00 | 20 | 1007.2 |
| 20260501201521 | 58 | 360 | 0.0 | 0.0 | 0.00 | 0.00 | 0.00 | 26 | 1016.7 |
| 20260501200030 | 88 | 276 | 0.0 | 0.0 | 0.00 | 0.00 | 0.00 | 20 | 1007.4 |
| 20260501200028 | 58 | 360 | 0.0 | 0.0 | 0.00 | 0.00 | 0.00 | 25 | 1016.8 |
| 20260501194531 | 88 | 200 | 0.0 | 0.0 | 0.00 | 0.00 | 0.00 | 20 | 1007.5 |
| 20260501194528 | 57 | 360 | 0.0 | 0.0 | 0.00 | 0.00 | 0.00 | 26 | 1016.8 |
| 20260501193027 | 88 | 105 | 0.0 | 0.0 | 0.00 | 0.00 | 0.00 | 21 | 1007.6 |
| 20260501193019 | 57 | 360 | 0.0 | 0.0 | 0.00 | 0.00 | 0.00 | 26 | 1016.9 |
| 20260501191526 | 88 | 119 | 0.0 | 0.0 | 0.00 | 0.00 | 0.00 | 21 | 1007.9 |
| 20260501191521 | 58 | 360 | 0.0 | 0.0 | 0.00 | 0.00 | 0.00 | 25 | 1017.0 |
| 20260501190034 | 59 | 360 | 0.0 | 0.0 | 0.00 | 0.00 | 0.00 | 27 | 1016.9 |
| 20260501190022 | 87 | 180 | 0.0 | 0.0 | 0.00 | 0.00 | 0.00 | 22 | 1008.0 |
| 20260501184519 | 85 | 136 | 0.0 | 0.0 | 0.00 | 0.00 | 0.00 | 23 | 1008.4 |
| 20260501184516 | 57 | 360 | 0.0 | 0.0 | 0.00 | 0.00 | 0.00 | 27 | 1017.1 |
| 20260501183018 | 84 | 360 | 0.0 | 0.0 | 0.00 | 0.00 | 0.00 | 25 | 1008.5 |
| 20260501183016 | 57 | 360 | 0.0 | 0.0 | 0.00 | 0.00 | 0.00 | 27 | 1017.2 |
| 20260501181521 | 58 | 360 | 0.0 | 0.0 | 0.00 | 0.00 | 0.00 | 28 | 1017.1 |
| 20260501180023 | 58 | 360 | 0.0 | 0.0 | 0.00 | 0.00 | 0.00 | 28 | 1017.2 |
| 20260501180012 | 83 | 226 | 0.0 | 0.0 | 0.00 | 0.00 | 0.00 | 27 | 1008.7 |
| 20260501174513 | 58 | 360 | 0.0 | 0.0 | 0.00 | 0.00 | 0.00 | 30 | 1017.1 |
| 20260501174511 | 82 | 214 | 0.0 | 0.0 | 0.00 | 0.00 | 0.00 | 28 | 1008.8 |
| 20260501173020 | 58 | 360 | 0.0 | 0.0 | 0.00 | 0.00 | 0.00 | 29 | 1017.2 |
| 20260501173007 | 81 | 261 | 0.0 | 0.0 | 0.00 | 0.00 | 0.00 | 29 | 1008.9 |
| 20260501171513 | 80 | 222 | 0.0 | 0.0 | 0.00 | 0.00 | 0.00 | 30 | 1008.8 |
| 20260501170009 | 56 | 360 | 0.0 | 0.0 | 0.00 | 0.00 | 0.00 | 29 | 1017.2 |
| 20260501170007 | 80 | 197 | 0.0 | 0.0 | 0.00 | 0.00 | 0.00 | 31 | 1008.9 |
| 20260501164606 | 79 | 185 | 0.0 | 0.0 | 0.00 | 0.00 | 0.00 | 33 | 1008.9 |
| 20260501164504 | 54 | 360 | 0.0 | 0.0 | 0.00 | 0.00 | 0.00 | 33 | 1017.2 |
| 20260501163103 | 52 | 360 | 0.0 | 0.0 | 0.00 | 0.00 | 0.00 | 37 | 1017.3 |
| 20260501163056 | 78 | 155 | 0.0 | 0.0 | 0.00 | 0.00 | 0.00 | 34 | 1008.9 |
| 20260501161606 | 77 | 141 | 0.0 | 0.0 | 0.00 | 0.00 | 0.00 | 35 | 1008.9 |
| 20260501161558 | 51 | 360 | 0.0 | 0.0 | 0.00 | 0.00 | 0.00 | 39 | 1017.3 |
| 20260501160056 | 76 | 165 | 0.0 | 0.0 | 0.00 | 0.00 | 0.00 | 37 | 1008.8 |
| 20260501160054 | 49 | 360 | 0.0 | 0.0 | 0.00 | 0.00 | 0.00 | 41 | 1017.3 |
| 20260501154554 | 49 | 360 | 0.0 | 0.0 | 0.00 | 0.00 | 0.00 | 40 | 1017.3 |
| 20260501154549 | 75 | 168 | 0.0 | 0.0 | 0.00 | 0.00 | 0.00 | 38 | 1008.6 |
| 20260501153107 | 48 | 360 | 0.0 | 0.0 | 0.00 | 0.00 | 0.00 | 42 | 1017.3 |
| 20260501153052 | 75 | 207 | 0.0 | 0.0 | 0.00 | 0.00 | 0.00 | 40 | 1008.5 |